Regional Weather Roundup
Issued by NWS Charleston, WV

Home | Current Version | Previous Version | Text Only | Print | Product List | Glossary On
Versions: 1 2 3 4 5 6 7 8 9 10 11 12 13 14 15 16 17 18 19 20 21 22 23 24 25 26 27 28 29 30 31 32 33 34 35 36 37 38 39 40 41 42 43 44 45 46 47 48 49 50
000
ASUS41 KRLX 072310
RWRRLX
West Virginia Regional Weather Roundup
National Weather Service Charleston WV
600 PM EST WED DEC 07 2016

Note: "fair" indicates few or no clouds below 12,000 feet with no
significant weather and/or obstructions to visibility.

WVZ003-080000-
Northern Panhandle of West Virginia

CITY           SKY/WX    TMP DP  RH WIND       PRES   REMARKS
WHEELING       CLOUDY    37  20  50 W6        30.07S
$$

WVZ009-080000-
Northwest West Virginia

CITY           SKY/WX    TMP DP  RH WIND       PRES   REMARKS
PARKERSBURG    CLOUDY    41  21  44 CALM      30.13S
$$

WVZ006-080000-
Western West Virginia

CITY           SKY/WX    TMP DP  RH WIND       PRES   REMARKS
HUNTINGTON     CLEAR     44  18  35 CALM      30.11R
$$

WVZ015-080000-
West Central West Virginia

CITY           SKY/WX    TMP DP  RH WIND       PRES   REMARKS
CHARLESTON     PTCLDY    41  26  55 CALM      30.09S
$$

WVZ022-031-080000-
North Central West Virginia

CITY           SKY/WX    TMP DP  RH WIND       PRES   REMARKS
CLARKSBURG     CLOUDY    41  23  48 CALM      30.07F
MORGANTOWN     CLOUDY    39  19  44 CALM      30.08S
$$

WVZ025-035-042-045-080000-
Southern West Virginia

CITY           SKY/WX    TMP DP  RH WIND       PRES   REMARKS
BECKLEY        CLEAR     37  16  42 CALM      30.05S
LOGAN            N/A     41  25  52 CALM      30.07S
BLUEFIELD      CLOUDY    35  28  75 W5        30.05R
LEWISBURG      CLEAR     34  19  56 CALM      30.05S
$$

WVZ047-080000-
Northern Mountains of West Virginia

CITY           SKY/WX    TMP DP  RH WIND       PRES   REMARKS
ELKINS         CLEAR     31  24  75 CALM      30.07R
$$

WVZ052-080000-
Eastern Panhandle of West Virginia

CITY           SKY/WX    TMP DP  RH WIND       PRES   REMARKS
MARTINSBURG    CLEAR     44  25  47 W3        30.05R
PETERSBURG     CLEAR     40  30  67 CALM      30.07R
$$



USA.gov is the U.S. government's official web portal to all federal, state and local government web resources and services.